Location: Silverdale
(47.6506°N, 122.6941°W)
Time: 17:20:50
(UTC+00:00)

Transit 2A - Pass Details

Date: 15 October 2022
Orbit: 598 x 959 km, 66.7° (Epoch: 30 November)

Event Time Altitude Azimuth Distance (km) Brightness Sun altitude
Exits shadow 10:52:39 17° 24° (NNE) 1,669 8.2 -36.1°
Maximum altitude 10:53:21 18° 35° (NE) 1,657 8.3 -36.0°
Drops below altitude 10° 10:56:43 10° 78° (ENE) 2,199 9.1 -35.5°
Sets 10:59:55 0° 97° (E) 3,194 9.9 -35.1°
